Tracking 28052 objects as of 22-Sep-2023
HD Live streaming from Space Station
objects crossing your sky now

ELECTRON KICK STAGE R/B

Track ELECTRON KICK STAGE R/B now!
10-day predictions


NORAD ID: 56752
Int'l Code: 2023-073A
Perigee: 537.1 km
Apogee: 555.6 km
Inclination: 32.7 °
Period: 95.4 minutes
Semi major axis: 6917 km
RCS: Unknown
Launch date: May 26, 2023
Source: United States (US)
Launch site: Rocket Lab Launch Complex (RLLC)

Note: This is a ROCKET BODY
Your satellite tracking list
Your tracking list is empty




NASA's NSSDC Master Catalog

Two Line Element Set (TLE):
1 56752U 23073A   23265.08932878  .00013467  00000-0  82721-3 0  9997
2 56752  32.7346 176.4401 0013359 269.1562  90.7576 15.09002582 17966
Source of the keplerian elements: AFSPC